CZ-4C R/B, 40341

Orbit data source: Space-Track

CZ-4C R/B, 40341 is space debris in LEO originally from a launch on Wed, 10 Dec 2014 UTC launched from the Jiuquan Satellite Launch Center, China (JSC). Debris objects in space refer to the collection of defunct objects orbiting the Earth. Examples of debris include non-operational satellites, rocket bodies, and fragments generated from explosions, collisions, or faulty payload assembly.

Loading next visibility...
Identifier
40341, 2014-080D
Orbit
LEO
Country
Flag of CNCN / PRC
Related business
Manufacturer
SAST
Mission
Spacecraft
Bus & Motor
CZ-4 STAGE 3, Unknown motor
Mass
~1,000 kg wet, ~1,000 kg dry
Launch date (UTC)
2014-12-10 (11 years ago)
Launch vehicle
Unknown
Launch site
Jiuquan Satellite Launch Center, China (JSC)
Object type
Payload
Rocket body
Debris
Shape & HBR
Cyl, 1.4 m
Radar Cross Section
20.385 m², Large (>1 m²)

Expand to show TLE details & history
Last TLE update: 8 hours ago

TLE from 8 hours ago
0 CZ-4C R/B
1 40341U 14080D   26062.47683200  .00000090  00000-0  85858-4 0  9998
2 40341  63.4269 142.5623 0528914 352.8168   6.5494 13.69823101561340
Epoch: 2026-03-03T11:26Z
TLE epoch observation values (Epoch: 2026-03-03T11:26:38.284Z)
Latitude
-0.00009°
Longitude
169.6474°
Altitude
614.557 km
Speed
7.748 km/s
True Right ascension
09h 30m 14s
True Declination
0° 00' 00"
Sunlit
Object was in full shadow at epoch
Visualization orbit readout
Latitude
Unknown
Longitude
Unknown
Altitude
Unknown
Speed
Unknown
Apparent Right ascension
Unknown
Apparent Declination
Unknown
Sunlit
N/A
Visualization observer readout
Local Sidereal Time
22:56:38
Azimuth
Unknown
Elevation
Unknown
Doppler factor
Unknown
Orbital elements
Apogee altitude
1,389.201 km
Perigee altitude
608.825 km
Semi-major axis
7,377.15 km
Eccentricity
0.05289
Inclination
63.4269°
RAAN
142.5623°
Arg. of periapsis
352.8168°
True anomaly
7.28914°
Mean anomaly
6.5494°
Eccentric anomaly
6.91422°
Mean motion
3.42539 °/min
Orbital period
105.1 mins
BSTAR
0.000085858
Loading maneuver chart data...
Computing Atmospheric mass density...
Loading historical data...
Loading historical data...
Loading historical data...
Loading historical data...
Loading historical data...
Loading historical data...
Loading historical data...

Documentation

Showing up to 5 results
|